KT5AL Weather Reports


time (UTC)temp
C
wind
direction
speed
KPH
gust
KPH
rain 1hr
cm
rain 24hr
cm
rain mn
cm
humidity
%
barometer
mb
20260504082008 16 180 12.9 16.1 0.00 0.00 0.00 71 1015.1
20260504081506 16 180 12.9 16.1 0.00 0.00 0.00 71 1015.1
20260504081008 16 180 14.5 16.1 0.00 0.00 0.00 72 1015.1
20260504080505 16 180 11.3 14.5 0.00 0.00 0.00 72 1015.1
20260504050539 18 180 14.5 20.9 0.00 0.00 0.00 60 1016.5
20260504050007 18 180 14.5 16.1 0.00 0.00 0.00 60 1016.5
20260504045504 18 180 16.1 17.7 0.00 0.00 0.00 60 1016.5
20260504045007 18 180 14.5 16.1 0.00 0.00 0.00 60 1016.5
20260504044505 18 180 14.5 16.1 0.00 0.00 0.00 60 1016.5
20260504044007 18 180 14.5 17.7 0.00 0.00 0.00 60 1016.5
20260504043504 18 180 14.5 16.1 0.00 0.00 0.00 60 1016.5
20260504043007 18 180 14.5 16.1 0.00 0.00 0.00 59 1016.5
20260504042504 18 180 14.5 16.1 0.00 0.00 0.00 59 1016.5
20260504042007 18 180 14.5 16.1 0.00 0.00 0.00 58 1016.5
20260504041504 18 180 14.5 17.7 0.00 0.00 0.00 57 1016.5
20260504041007 18 180 14.5 16.1 0.00 0.00 0.00 57 1016.5
20260504040504 18 180 14.5 16.1 0.00 0.00 0.00 56 1016.5
20260504040007 18 180 14.5 17.7 0.00 0.00 0.00 56 1016.5
20260504035504 18 180 16.1 19.3 0.00 0.00 0.00 55 1016.5
20260504035004 18 180 14.5 16.1 0.00 0.00 0.00 55 1016.5
20260504034507 19 180 14.5 16.1 0.00 0.00 0.00 54 1016.5
20260504034004 19 180 14.5 17.7 0.00 0.00 0.00 54 1016.5
20260504033507 19 180 14.5 17.7 0.00 0.00 0.00 53 1016.1
20260504033004 19 180 12.9 14.5 0.00 0.00 0.00 52 1016.1
20260504032507 19 180 14.5 16.1 0.00 0.00 0.00 52 1016.1
20260504032004 19 180 14.5 17.7 0.00 0.00 0.00 51 1016.1
20260504031507 20 180 16.1 19.3 0.00 0.00 0.00 51 1015.8
20260504031004 20 180 14.5 17.7 0.00 0.00 0.00 51 1015.8
20260504030507 20 180 16.1 19.3 0.00 0.00 0.00 50 1015.8
20260504030030 20 180 14.5 19.3 0.00 0.00 0.00 50 1015.8
20260504025507 20 180 14.5 16.1 0.00 0.00 0.00 49 1015.4
20260504025004 20 180 14.5 19.3 0.00 0.00 0.00 48 1015.4
20260504024507 21 157 17.7 20.9 0.00 0.00 0.00 48 1015.4
20260504024004 21 157 16.1 19.3 0.00 0.00 0.00 48 1015.4
20260504023507 21 157 16.1 19.3 0.00 0.00 0.00 47 1015.1
20260504023008 21 135 14.5 19.3 0.00 0.00 0.00 46 1015.1
20260504022508 21 157 14.5 17.7 0.00 0.00 0.00 46 1015.1
20260504022005 21 180 16.1 22.5 0.00 0.00 0.00 46 1015.1
20260504021508 21 157 17.7 22.5 0.00 0.00 0.00 46 1015.1
20260504021008 21 157 14.5 20.9 0.00 0.00 0.00 45 1015.1
20260504020503 21 157 16.1 20.9 0.00 0.00 0.00 45 1015.1
20260504020006 21 157 16.1 19.3 0.00 0.00 0.00 45 1015.1
20260504015503 21 157 14.5 19.3 0.00 0.00 0.00 45 1015.1
20260504015006 21 157 12.9 16.1 0.00 0.00 0.00 45 1015.1
20260504014503 21 157 12.9 16.1 0.00 0.00 0.00 50 1014.8
20260504014006 21 157 14.5 17.7 0.00 0.00 0.00 43 1014.8
20260504013503 21 157 16.1 19.3 0.00 0.00 0.00 43 1014.8
20260504013006 21 180 14.5 19.3 0.00 0.00 0.00 53 1014.8
20260504012503 22 157 14.5 19.3 0.00 0.00 0.00 44 1014.4
20260504012007 22 157 14.5 19.3 0.00 0.00 0.00 44 1014.4
20260504011504 22 157 11.3 14.5 0.00 0.00 0.00 44 1014.4
20260504011007 22 157 11.3 14.5 0.00 0.00 0.00 44 1014.4
20260504010504 22 180 9.7 12.9 0.00 0.00 0.00 43 1013.8
20260504010007 22 180 9.7 12.9 0.00 0.00 0.00 42 1013.8
20260504005531 23 157 12.9 16.1 0.00 0.00 0.00 40 1013.8
20260504005008 23 157 12.9 16.1 0.00 0.00 0.00 39 1013.8
20260504004504 23 180 16.1 19.3 0.00 0.00 0.00 38 1013.8
20260504004007 23 157 16.1 17.7 0.00 0.00 0.00 38 1013.8
20260504003509 23 180 20.9 24.1 0.00 0.00 0.00 37 1013.4
20260504003006 24 180 12.9 16.1 0.00 0.00 0.00 37 1013.4
20260504002507 24 202 14.5 17.7 0.00 0.00 0.00 37 1013.4
20260504002004 25 202 16.1 19.3 0.00 0.00 0.00 35 1013.4
20260504001507 25 180 16.1 22.5 0.00 0.00 0.00 35 1013.1
20260504001004 25 180 16.1 19.3 0.00 0.00 0.00 36 1013.1
20260504000507 25 225 17.7 22.5 0.00 0.00 0.00 34 1013.1
20260504000005 25 202 20.9 30.6 0.00 0.00 0.00 34 1013.1
20260503235508 25 202 16.1 20.9 0.00 0.00 0.00 34 1013.1
20260503235005 25 180 22.5 27.4 0.00 0.00 0.00 32 1013.1
20260503234508 25 180 25.7 32.2 0.00 0.00 0.00 30 1013.4
20260503234005 25 202 22.5 30.6 0.00 0.00 0.00 31 1013.4
20260503233511 26 202 16.1 20.9 0.00 0.00 0.00 33 1013.4
20260503233006 26 180 17.7 22.5 0.00 0.00 0.00 31 1013.4
20260503232503 26 202 24.1 29.0 0.00 0.00 0.00 30 1013.4
20260503232006 26 180 25.7 32.2 0.00 0.00 0.00 31 1013.4
20260503231503 26 202 22.5 27.4 0.00 0.00 0.00 32 1013.8
20260503231006 25 202 24.1 32.2 0.00 0.00 0.00 30 1013.8
20260503230504 25 202 22.5 29.0 0.00 0.00 0.00 31 1013.4
20260503230007 25 202 19.3 22.5 0.00 0.00 0.00 32 1013.4
20260503225504 25 202 20.9 25.7 0.00 0.00 0.00 29 1013.4
20260503225033 26 202 20.9 25.7 0.00 0.00 0.00 30 1013.4
20260503224504 26 202 25.7 30.6 0.00 0.00 0.00 30 1013.4
20260503224007 26 180 22.5 27.4 0.00 0.00 0.00 30 1013.4
20260503223504 26 180 32.2 37.0 0.00 0.00 0.00 30 1013.4
20260503223007 26 180 20.9 25.7 0.00 0.00 0.00 31 1013.4
20260503222504 26 180 25.7 30.6 0.00 0.00 0.00 29 1013.4
20260503222007 26 180 22.5 30.6 0.00 0.00 0.00 29 1013.4
20260503221504 26 157 27.4 33.8 0.00 0.00 0.00 29 1013.4
20260503221003 26 180 20.9 30.6 0.00 0.00 0.00 29 1013.4
20260503220506 26 202 24.1 30.6 0.00 0.00 0.00 30 1013.8
20260503220003 26 180 27.4 32.2 0.00 0.00 0.00 29 1013.8
20260503215506 26 202 24.1 30.6 0.00 0.00 0.00 31 1013.8
20260503215003 26 202 20.9 27.4 0.00 0.00 0.00 32 1013.8
20260503214506 26 180 20.9 25.7 0.00 0.00 0.00 29 1013.8
20260503214009 26 202 20.9 27.4 0.00 0.00 0.00 30 1013.8
20260503213505 26 202 17.7 22.5 0.00 0.00 0.00 33 1014.1
20260503213009 26 202 27.4 32.2 0.00 0.00 0.00 30 1014.1
20260503212506 26 202 25.7 30.6 0.00 0.00 0.00 30 1014.4
20260503212004 26 202 19.3 24.1 0.00 0.00 0.00 29 1014.4
20260503211507 26 225 17.7 24.1 0.00 0.00 0.00 30 1014.4
20260503211004 26 180 19.3 25.7 0.00 0.00 0.00 31 1014.4
20260503210507 26 202 25.7 30.6 0.00 0.00 0.00 28 1014.8
20260503210005 26 202 30.6 37.0 0.00 0.00 0.00 29 1014.8
20260503205504 26 202 22.5 29.0 0.00 0.00 0.00 30 1014.8
20260503205007 26 202 30.6 35.4 0.00 0.00 0.00 29 1014.8
20260503204536 26 180 20.9 25.7 0.00 0.00 0.00 34 1015.1
20260503204008 26 180 25.7 30.6 0.00 0.00 0.00 34 1015.1
20260503203505 26 202 20.9 25.7 0.00 0.00 0.00 33 1015.1
20260503203005 26 202 30.6 37.0 0.00 0.00 0.00 30 1015.1
20260503202508 26 202 19.3 24.1 0.00 0.00 0.00 32 1015.4
20260503202009 26 202 20.9 29.0 0.00 0.00 0.00 32 1015.4
20260503201505 26 202 20.9 25.7 0.00 0.00 0.00 32 1015.8
20260503201008 26 202 16.1 20.9 0.00 0.00 0.00 30 1015.8
20260503200505 26 225 22.5 30.6 0.00 0.00 0.00 29 1015.8
20260503200008 26 157 17.7 32.2 0.00 0.00 0.00 30 1015.8
20260503195505 26 180 30.6 33.8 0.00 0.00 0.00 29 1015.8
20260503195008 26 202 27.4 30.6 0.00 0.00 0.00 34 1015.8
20260503194505 25 202 19.3 24.1 0.00 0.00 0.00 36 1016.1
20260503194008 25 180 17.7 27.4 0.00 0.00 0.00 37 1016.1
20260503193505 25 202 25.7 30.6 0.00 0.00 0.00 34 1016.1
20260503193008 25 202 24.1 30.6 0.00 0.00 0.00 34 1016.1
20260503192507 25 180 27.4 35.4 0.00 0.00 0.00 32 1016.5
20260503192004 25 202 17.7 22.5 0.00 0.00 0.00 38 1016.5
20260503191507 25 225 17.7 22.5 0.00 0.00 0.00 34 1016.5
20260503191004 25 225 27.4 33.8 0.00 0.00 0.00 34 1016.5
20260503190507 25 225 22.5 29.0 0.00 0.00 0.00 37 1016.5
20260503190004 25 225 14.5 17.7 0.00 0.00 0.00 37 1016.5
20260503185507 25 202 27.4 32.2 0.00 0.00 0.00 34 1017.1
20260503185008 25 202 19.3 27.4 0.00 0.00 0.00 37 1017.1
20260503184505 25 202 20.9 27.4 0.00 0.00 0.00 39 1017.1
20260503184046 25 247 20.9 27.4 0.00 0.00 0.00 38 1017.1
20260503183504 25 225 25.7 30.6 0.00 0.00 0.00 33 1017.1
20260503183004 25 225 20.9 27.4 0.00 0.00 0.00 37 1017.1
20260503182507 25 202 19.3 24.1 0.00 0.00 0.00 39 1017.5
20260503182005 25 202 24.1 41.8 0.00 0.00 0.00 39 1017.5
20260503181507 25 202 16.1 24.1 0.00 0.00 0.00 40 1017.8
20260503181004 25 180 27.4 33.8 0.00 0.00 0.00 38 1017.8
20260503180507 25 202 17.7 22.5 0.00 0.00 0.00 41 1017.8
20260503180005 24 225 20.9 27.4 0.00 0.00 0.00 39 1017.8
20260503175508 24 225 22.5 27.4 0.00 0.00 0.00 41 1018.2
20260503175005 24 225 19.3 25.7 0.00 0.00 0.00 42 1018.2
20260503174508 24 247 19.3 24.1 0.00 0.00 0.00 39 1018.5
20260503174005 24 202 22.5 25.7 0.00 0.00 0.00 39 1018.5
20260503173506 24 202 20.9 24.1 0.00 0.00 0.00 40 1018.5
20260503173009 24 247 19.3 25.7 0.00 0.00 0.00 41 1018.5
20260503172506 23 225 22.5 27.4 0.00 0.00 0.00 40 1018.5
20260503172003 23 247 19.3 29.0 0.00 0.00 0.00 44 1018.5
20260503171506 24 225 17.7 24.1 0.00 0.00 0.00 43 1018.8
20260503171009 23 202 20.9 32.2 0.00 0.00 0.00 43 1018.8
20260503170506 23 225 25.7 32.2 0.00 0.00 0.00 43 1018.8
20260503151009 21 225 22.5 29.0 0.00 0.00 0.00 53 1019.9
20260503150507 21 225 22.5 25.7 0.00 0.00 0.00 53 1019.9
20260503131004 15 202 6.4 9.7 0.00 0.00 0.00 90 1022.6
20260503130507 15 202 8.0 11.3 0.00 0.00 0.00 91 1022.9
20260503110503 11 225 4.8 6.4 0.00 0.00 0.00 95 1023.2
20260503090508 12 225 4.8 4.8 0.00 0.00 0.00 87 1022.6